Zurück zum Katalog

STARLINK-36504

AktivKommunikationVLEO
NORAD 67462·PAYLOAD·🇺🇸 United States

Gestartet Jan 14, 2026 von Cape Canaveral Space Force Station

Loading…

Nächste Überflüge (nächste 24 Stunden)

TLE

AktuellSource: CelesTrak SupGP

Epoche: Sep 15, 2026, 02:49 UTC

1 67462C 26008T   26258.11784722 -.00031690  00000+0 -11473-2 0  2582
2 67462  43.0002 215.3834 0001012 261.2492  86.5653 15.27609323    14

Verfolge STARLINK-36504 in Echtzeit mit AllMySat

Download on the App Store